Location: Dehesa de la Cepeda
(40.6574°N, 4.3013°W)
Time: 18:44:13
(UTC+00:00)

Explorer 7 - Pass Details

Date: 06 August 2021
Orbit: 484 x 676 km, 50.3° (Epoch: 16 September)

Event Time Altitude Azimuth Distance (km) Brightness Sun altitude
Exits shadow 03:56:39 22° 266° (W) 1,113 7.9 -14.3°
Maximum altitude 03:58:48 48° 332° (NNW) 644 7.2 -14.0°
Drops below altitude 10° 04:02:32 10° 49° (NE) 1,706 10.8 -13.4°
Sets 04:04:50 0° 55° (NE) 2,615 12.4 -13.1°
